User: anonymous   Login
Location: Oshawa
(43.9000°N, 78.8670°W)
Time: 06:39:35
(UTC-04:00)
Language:

Cosmos 1805 Rocket - Orbit

View from above orbital plane
View from above orbital plane
View from above satellite
View from above satellite

Ground track
Ground track

The orbit data is extracted from the following two-line orbital elements,

1 17192U 86097B   17087.77617010 +.00000131 +00000-0 +13021-4 0  9998
2 17192 082.5075 331.9855 0017223 011.8481 063.1595 14.83493793615665
Epoch (UTC): 28 March 2017 18:37:41
Eccentricity: 0.0017223
inclination: 82.5075°
perigee height: 606 km
apogee height: 630 km
right ascension of ascending node: 331.9855°
argument of perigee: 11.8481°
revolutions per day: 14.83493793
mean anomaly at epoch: 63.1595°
orbit number at epoch: 61566

The dashed part of the orbit path shows where the satellite is in the earth's shadow,  

DLR